timestamp,surface_pressure_avg,surface_temp_avg,battery_voltage,lat,long
2022-02-23 00:09:01+00:00,245.6747,1.4,12.25,47.84626,-54.09684
2022-02-23 00:19:01+00:00,248.8214,1.4,12.25,47.84626,-54.09684
2022-02-23 00:29:01+00:00,254.9131,1.5,12.25,47.84626,-54.09684
2022-02-23 00:39:01+00:00,258.0964,1.5,12.25,47.84626,-54.09684
2022-02-23 00:49:01+00:00,258.538,1.4,12.25,47.84626,-54.09684
2022-02-23 00:59:01+00:00,258.9831,1.2,12.25,47.84626,-54.09684
2022-02-23 01:09:01+00:00,269.7581,1.1,12.25,47.84626,-54.09684
2022-02-23 01:19:00+00:00,273.8964,0.72,12.25,47.84626,-54.09684
2022-02-23 01:29:00+00:00,280.2114,0.96,12.25,47.84626,-54.09684
2022-02-23 01:39:00+00:00,286.5581,0.9,12.25,47.84626,-54.09684
2022-02-23 01:49:00+00:00,295.8647,0.7,12.25,47.84626,-54.09684
2022-02-23 01:59:00+00:00,298.8614,0.65,12.25,47.84626,-54.09684
2022-02-23 02:09:00+00:00,309.5146,0.69,12.25,47.84626,-54.09684
2022-02-23 02:19:00+00:00,314.6047,0.7,12.25,47.84626,-54.09684
2022-02-23 02:29:00+00:00,313.9547,0.7,12.25,47.84626,-54.09684
2022-02-23 02:39:00+00:00,315.4413,0.79,12.25,47.84626,-54.09684
2022-02-23 02:49:00+00:00,323.7579,0.8,12.25,47.84626,-54.09684
2022-02-23 02:59:00+00:00,326.7079,0.8,12.25,47.84626,-54.09684
2022-02-23 03:09:00+00:00,325.858,0.8,12.25,47.84626,-54.09684
2022-02-23 03:19:01+00:00,329.2946,0.83,12.17,47.84626,-54.09684
2022-02-23 03:29:01+00:00,337.7213,0.86,12.17,47.84626,-54.09684
2022-02-23 03:39:01+00:00,340.5346,0.89,12.17,47.84626,-54.09684
2022-02-23 03:49:01+00:00,346.0413,0.9,12.17,47.84626,-54.09684
2022-02-23 03:59:01+00:00,347.3079,0.89,12.17,47.84626,-54.09684
2022-02-23 04:09:01+00:00,338.9663,0.87,12.17,47.84626,-54.09684
2022-02-23 04:19:01+00:00,334.2163,0.86,12.17,47.84626,-54.09684
2022-02-23 04:29:01+00:00,340.9396,0.88,12.17,47.84626,-54.09684
2022-02-23 04:39:01+00:00,342.3813,0.89,12.17,47.84626,-54.09684
2022-02-23 04:49:01+00:00,333.7346,0.89,12.17,47.84626,-54.09684
2022-02-23 04:59:01+00:00,331.7247,0.88,12.17,47.84626,-54.09684
2022-02-23 05:09:01+00:00,338.4296,0.88,12.17,47.84626,-54.09684
2022-02-23 05:19:00+00:00,331.9997,0.8,12.17,47.84626,-54.09684
2022-02-23 05:29:00+00:00,328.2579,0.8,12.17,47.84626,-54.09684
2022-02-23 05:39:00+00:00,329.4313,0.8,12.17,47.84626,-54.09684
2022-02-23 05:49:00+00:00,327.4763,0.97,12.17,47.84626,-54.09684
2022-02-23 05:59:00+00:00,317.7263,1.28,12.17,47.84626,-54.09684
2022-02-23 06:09:00+00:00,314.6813,1.4,12.17,47.84626,-54.09684
2022-02-23 06:19:00+00:00,313.3829,1.35,12.17,47.84626,-54.09684
2022-02-23 06:29:00+00:00,300.038,1.0,12.17,47.84626,-54.09684
2022-02-23 06:39:00+00:00,291.558,1.19,12.17,47.84626,-54.09684
2022-02-23 06:49:00+00:00,293.743,1.4,12.17,47.84626,-54.09684
2022-02-23 06:59:00+00:00,292.5964,1.42,12.17,47.84626,-54.09684
2022-02-23 07:09:00+00:00,282.1097,1.4,12.17,47.84626,-54.09684
2022-02-23 07:19:00+00:00,272.4731,1.21,12.17,47.84626,-54.09684
2022-02-23 07:29:00+00:00,270.9448,1.19,12.17,47.84626,-54.09684
2022-02-23 07:39:00+00:00,267.1497,1.2,12.17,47.84626,-54.09684
2022-02-23 07:49:00+00:00,257.0231,1.2,12.17,47.84626,-54.09684
2022-02-23 07:59:00+00:00,249.8981,1.2,12.17,47.84626,-54.09684
2022-02-23 08:09:00+00:00,243.8314,1.18,12.17,47.84626,-54.09684
2022-02-23 08:19:00+00:00,233.4965,1.1,12.17,47.84626,-54.09684
2022-02-23 08:29:00+00:00,224.6714,1.18,12.17,47.84626,-54.09684
2022-02-23 08:39:00+00:00,219.6781,1.2,12.17,47.84626,-54.09684
2022-02-23 08:49:00+00:00,213.2831,1.2,12.17,47.84626,-54.09684
2022-02-23 08:59:00+00:00,202.3848,1.26,12.17,47.84626,-54.09684
2022-02-23 09:09:00+00:00,197.1898,1.29,12.17,47.84626,-54.09684
2022-02-23 09:19:01+00:00,196.5731,1.29,12.17,47.84626,-54.09684
2022-02-23 09:29:01+00:00,191.6565,1.28,12.17,47.84626,-54.09684
2022-02-23 09:39:01+00:00,186.7915,1.25,12.17,47.84626,-54.09684
2022-02-23 09:49:01+00:00,186.6831,1.25,12.17,47.84626,-54.09684
2022-02-23 09:59:01+00:00,189.8932,1.29,12.17,47.84626,-54.09684
2022-02-23 10:09:01+00:00,191.9715,1.34,12.17,47.84626,-54.09684
2022-02-23 10:19:01+00:00,191.4681,1.4,12.17,47.84626,-54.09684
2022-02-23 10:29:01+00:00,192.4648,1.3,12.17,47.84626,-54.09684
2022-02-23 10:39:01+00:00,196.3914,1.2,12.17,47.84626,-54.09684
2022-02-23 10:49:01+00:00,199.5381,1.3,12.17,47.84626,-54.09684
2022-02-23 10:59:01+00:00,198.3948,1.21,12.17,47.84626,-54.09684
2022-02-23 11:09:01+00:00,198.5198,1.48,12.17,47.84626,-54.09684
2022-02-23 11:19:00+00:00,200.0448,1.6,12.25,47.84626,-54.09684
2022-02-23 11:29:00+00:00,201.1615,1.5,12.25,47.84626,-54.09684
2022-02-23 11:39:00+00:00,204.4615,1.5,12.25,47.84626,-54.09684
2022-02-23 11:49:00+00:00,208.7664,1.5,12.25,47.84626,-54.09684
2022-02-23 11:59:00+00:00,210.0698,1.5,12.25,47.84626,-54.09684
2022-02-23 12:09:00+00:00,212.9214,1.4,12.25,47.84626,-54.09684
2022-02-23 12:19:00+00:00,218.0114,1.47,12.25,47.84626,-54.09684
2022-02-23 12:29:00+00:00,218.8265,1.5,12.25,47.84626,-54.09684
2022-02-23 12:39:00+00:00,221.7181,1.5,12.25,47.84626,-54.09684
2022-02-23 12:49:00+00:00,229.1914,1.5,12.25,47.84626,-54.09684
2022-02-23 12:59:00+00:00,233.3848,1.5,12.25,47.84626,-54.09684
2022-02-23 13:09:00+00:00,237.1131,1.5,12.25,47.84626,-54.09684
2022-02-23 13:19:01+00:00,245.4215,1.5,12.25,47.84626,-54.09684
2022-02-23 13:29:01+00:00,249.9814,1.55,12.25,47.84626,-54.09684
2022-02-23 13:39:01+00:00,248.4397,1.5,12.25,47.84626,-54.09684
2022-02-23 13:49:01+00:00,253.308,1.5,12.25,47.84626,-54.09684
2022-02-23 13:59:01+00:00,264.4315,1.55,12.25,47.84626,-54.09684
2022-02-23 14:09:01+00:00,272.0264,1.58,12.25,47.84626,-54.09684
2022-02-23 14:19:01+00:00,273.8547,1.59,12.25,47.84626,-54.09684
2022-02-23 14:29:01+00:00,279.8064,1.56,12.25,47.84626,-54.09684
2022-02-23 14:39:01+00:00,285.283,1.6,12.25,47.84626,-54.09684
2022-02-23 14:49:01+00:00,289.483,1.6,12.25,47.84626,-54.09684
2022-02-23 14:59:01+00:00,291.5047,1.58,12.25,47.84626,-54.09684
2022-02-23 15:09:01+00:00,300.5096,1.55,12.25,47.84626,-54.09684
2022-02-23 15:19:01+00:00,306.8413,1.57,12.25,47.84626,-54.09684
2022-02-23 15:29:01+00:00,307.9864,1.56,12.25,47.84626,-54.09684
2022-02-23 15:39:01+00:00,306.083,1.51,12.25,47.84626,-54.09684
2022-02-23 15:49:01+00:00,308.4213,1.53,12.25,47.84626,-54.09684
2022-02-23 15:59:01+00:00,312.6797,1.5,12.25,47.84626,-54.09684
2022-02-23 16:09:01+00:00,314.1614,1.5,12.25,47.84626,-54.09684
2022-02-23 16:19:00+00:00,314.6447,1.5,12.25,47.84626,-54.09684
2022-02-23 16:29:00+00:00,313.8514,1.5,12.25,47.84626,-54.09684
2022-02-23 16:39:00+00:00,316.8164,1.5,12.25,47.84626,-54.09684
2022-02-23 16:49:00+00:00,314.9446,1.5,12.25,47.84626,-54.09684
2022-02-23 16:59:00+00:00,312.848,1.5,12.25,47.84626,-54.09684
2022-02-23 17:09:00+00:00,314.403,1.5,12.25,47.84626,-54.09684
2022-02-23 17:19:00+00:00,314.3947,1.5,12.25,47.84626,-54.09684
2022-02-23 17:29:00+00:00,306.0947,1.5,12.25,47.84626,-54.09684
2022-02-23 17:39:00+00:00,304.5997,1.5,12.25,47.84626,-54.09684
2022-02-23 17:49:00+00:00,312.9813,1.5,12.25,47.84626,-54.09684
2022-02-23 17:59:00+00:00,309.118,1.5,12.25,47.84626,-54.09684
2022-02-23 18:09:00+00:00,296.533,1.5,12.25,47.84626,-54.09684
2022-02-23 18:19:00+00:00,295.283,1.48,12.25,47.84626,-54.09684
2022-02-23 18:29:00+00:00,307.3747,1.47,12.25,47.84626,-54.09684
2022-02-23 18:39:00+00:00,302.6347,1.48,12.25,47.84626,-54.09684
2022-02-23 18:49:00+00:00,289.7564,1.41,12.25,47.84626,-54.09684
2022-02-23 18:59:00+00:00,283.9846,1.4,12.25,47.84626,-54.09684
2022-02-23 19:09:00+00:00,281.4797,1.4,12.25,47.84626,-54.09684
2022-02-23 19:19:01+00:00,278.6131,1.4,12.25,47.84626,-54.09684
2022-02-23 19:29:01+00:00,274.0181,1.4,12.25,47.84626,-54.09684
2022-02-23 19:39:01+00:00,269.4864,1.4,12.25,47.84626,-54.09684
2022-02-23 19:49:01+00:00,258.7481,1.4,12.25,47.84626,-54.09684
2022-02-23 19:59:01+00:00,245.5398,1.4,12.25,47.84626,-54.09684
2022-02-23 20:09:01+00:00,235.6831,1.4,12.25,47.84626,-54.09684
2022-02-23 20:19:00+00:00,230.3664,1.4,12.25,47.84626,-54.09684
2022-02-23 20:29:00+00:00,220.5214,1.42,12.25,47.84626,-54.09684
2022-02-23 20:39:00+00:00,213.3498,1.4,12.25,47.84626,-54.09684
2022-02-23 20:49:00+00:00,210.2681,1.4,12.25,47.84626,-54.09684
2022-02-23 20:59:00+00:00,203.6698,1.4,12.25,47.84626,-54.09684
2022-02-23 21:09:00+00:00,197.7347,1.4,12.25,47.84626,-54.09684
2022-02-23 21:19:01+00:00,195.5298,1.39,12.25,47.84626,-54.09684
2022-02-23 21:29:01+00:00,188.0698,1.39,12.25,47.84626,-54.09684
2022-02-23 21:39:01+00:00,181.0848,1.4,12.25,47.84626,-54.09684
2022-02-23 21:49:01+00:00,186.1165,1.4,12.25,47.84626,-54.09684
2022-02-23 21:59:01+00:00,191.7331,1.4,12.25,47.84626,-54.09684
2022-02-23 22:09:01+00:00,183.3465,1.4,12.25,47.84626,-54.09684
2022-02-23 22:19:00+00:00,175.7332,1.4,12.25,47.84626,-54.09684
2022-02-23 22:29:00+00:00,185.0931,1.4,12.25,47.84626,-54.09684
2022-02-23 22:39:00+00:00,189.2815,1.4,12.25,47.84626,-54.09684
2022-02-23 22:49:00+00:00,184.3081,1.4,12.25,47.84626,-54.09684
2022-02-23 22:59:00+00:00,188.2932,1.4,12.25,47.84626,-54.09684
2022-02-23 23:09:00+00:00,195.5848,1.4,12.25,47.84626,-54.09684
2022-02-23 23:19:00+00:00,196.1815,1.4,12.25,47.84626,-54.09684
2022-02-23 23:29:00+00:00,195.2865,1.4,12.25,47.84626,-54.09684
2022-02-23 23:39:00+00:00,203.0948,1.4,12.25,47.84626,-54.09684
2022-02-23 23:49:00+00:00,212.1198,1.4,12.25,47.84626,-54.09684
2022-02-23 23:59:00+00:00,210.1198,1.4,12.25,47.84626,-54.09684
